FW7026 Weather Reports


Display with metric or nautical units.
time (UTC)temp
F
wind
direction
speed
MPH
gust
MPH
rain 1hr
in
rain 24hr
in
rain mn
in
humidity
%
barometer
mb
20260901225215 60 233 0.0 0.0 0.00 0.00 0.00 56 1018.5
20260901224711 60 224 0.0 0.0 0.00 0.00 0.00 56 1018.5
20260901224206 61 220 0.0 0.0 0.00 0.00 0.00 56 1018.5
20260901223702 61 230 0.0 0.0 0.00 0.00 0.00 56 1018.5
20260901223157 63 220 0.0 0.0 0.00 0.00 0.00 53 1018.5
20260901222654 63 220 0.0 0.0 0.00 0.00 0.00 53 1018.5
20260901222149 63 220 0.0 0.0 0.00 0.00 0.00 53 1018.5
20260901221645 64 212 0.0 0.0 0.00 0.00 0.00 50 1018.2
20260901221141 64 212 0.0 0.0 0.00 0.00 0.00 50 1018.2
20260901220640 65 225 0.0 0.0 0.00 0.00 0.00 50 1018.2
20260901220139 66 220 0.0 0.0 0.00 0.00 0.00 49 1018.2
20260901215638 66 220 0.0 0.0 0.00 0.00 0.00 49 1018.2
20260901215132 66 220 0.0 0.0 0.00 0.00 0.00 49 1018.2
20260901214630 66 216 0.0 0.0 0.00 0.00 0.00 47 1018.2
20260901214125 66 206 0.0 0.0 0.00 0.00 0.00 47 1018.2
20260901213625 66 210 0.0 0.0 0.00 0.00 0.00 47 1018.2
20260901213119 66 205 0.0 0.0 0.00 0.00 0.00 51 1018.2
20260901212427 68 206 0.0 0.0 0.00 0.00 0.00 42 1017.8
20260901211924 68 206 0.0 0.0 0.00 0.00 0.00 42 1017.8
20260901211419 68 206 0.0 0.0 0.00 0.00 0.00 42 1017.8
20260901210915 69 71 0.0 0.0 0.00 0.00 0.00 40 1017.8
20260901210410 69 23 0.0 0.0 0.00 0.00 0.00 40 1017.8
20260901205907 69 242 0.0 0.0 0.00 0.00 0.00 40 1017.8
20260901205407 70 351 0.0 0.0 0.00 0.00 0.00 41 1017.8
20260901204901 70 351 0.0 0.0 0.00 0.00 0.00 41 1017.8
20260901204353 70 225 0.0 0.0 0.00 0.00 0.00 40 1017.8
20260901203852 70 225 0.0 0.0 0.00 0.00 0.00 40 1017.8
20260901203347 70 225 0.0 0.0 0.00 0.00 0.00 40 1017.8
20260901202841 70 225 0.0 0.0 0.00 0.00 0.00 42 1017.8
20260901202336 70 225 0.0 0.0 0.00 0.00 0.00 42 1017.8
20260901201833 70 219 0.0 0.0 0.00 0.00 0.00 38 1017.8
20260901201332 69 185 0.0 0.0 0.00 0.00 0.00 45 1017.8
20260901200826 69 185 0.0 0.0 0.00 0.00 0.00 45 1017.8
20260901200321 69 185 0.0 0.0 0.00 0.00 0.00 45 1017.8
20260901195820 69 182 0.0 0.0 0.00 0.00 0.00 44 1018.2
20260901195318 69 182 0.0 0.0 0.00 0.00 0.00 44 1018.2
20260901194444 75 185 0.0 0.0 0.00 0.00 0.00 38 1018.2
20260901193940 75 185 0.0 0.0 0.00 0.00 0.00 38 1018.2
20260901193439 75 122 0.0 0.0 0.00 0.00 0.00 36 1017.8
20260901192939 75 199 0.0 0.0 0.00 0.00 0.00 37 1017.8
20260901192435 75 164 0.0 0.0 0.00 0.00 0.00 36 1017.8
20260901191931 74 140 0.0 0.0 0.00 0.00 0.00 37 1018.2
20260901191427 74 140 0.0 0.0 0.00 0.00 0.00 37 1018.2
20260901190922 74 140 0.0 0.0 0.00 0.00 0.00 37 1018.2
20260901190422 73 238 0.0 0.0 0.00 0.00 0.00 41 1017.8
20260901185920 72 33 0.0 0.0 0.00 0.00 0.00 44 1018.2
20260901184154 73 179 0.0 0.0 0.00 0.00 0.00 42 1017.8
20260901183649 73 179 0.0 0.0 0.00 0.00 0.00 42 1017.8
20260901183143 72 179 0.0 0.0 0.00 0.00 0.00 41 1017.8
20260901182640 73 183 0.0 0.0 0.00 0.00 0.00 38 1017.8
20260901182138 73 183 0.0 0.0 0.00 0.00 0.00 38 1017.8
20260901181633 74 204 0.0 0.0 0.00 0.00 0.00 41 1017.8
20260901181128 72 102 0.0 0.0 0.00 0.00 0.00 38 1018.2
20260901180628 72 102 0.0 0.0 0.00 0.00 0.00 38 1018.2
20260901180122 73 300 0.0 0.0 0.00 0.00 0.00 40 1017.8
20260901175621 72 223 0.0 0.0 0.00 0.00 0.00 42 1017.8
20260901175116 72 223 0.0 0.0 0.00 0.00 0.00 42 1017.8
20260901174611 72 199 0.0 0.0 0.00 0.00 0.00 38 1018.2
20260901174102 72 211 0.0 0.0 0.00 0.00 0.00 41 1017.8
20260901173601 71 331 0.0 0.0 0.00 0.00 0.00 41 1018.2
20260901173057 72 325 0.0 2.0 0.00 0.00 0.00 43 1017.8
20260901172553 72 325 0.0 2.0 0.00 0.00 0.00 43 1017.8
20260901172051 71 138 0.0 0.0 0.00 0.00 0.00 37 1017.8
20260901171550 71 256 0.0 0.0 0.00 0.00 0.00 42 1017.8
20260901171049 71 256 0.0 0.0 0.00 0.00 0.00 42 1017.8
20260901170543 71 213 0.0 0.0 0.00 0.00 0.00 44 1017.8
20260901170039 71 164 0.0 0.0 0.00 0.00 0.00 42 1017.8
20260901165538 70 199 0.0 0.0 0.00 0.00 0.00 43 1017.8
20260901165034 70 137 0.0 5.0 0.00 0.00 0.00 39 1018.2
20260901164529 70 339 0.0 0.0 0.00 0.00 0.00 37 1017.8
20260901164024 71 155 0.0 0.0 0.00 0.00 0.00 42 1017.8
20260901163519 71 155 0.0 0.0 0.00 0.00 0.00 42 1017.8
20260901163018 71 155 0.0 0.0 0.00 0.00 0.00 42 1017.8
20260901162356 69 283 0.0 0.0 0.00 0.00 0.00 41 1018.2
20260901161855 69 283 0.0 0.0 0.00 0.00 0.00 41 1018.2
20260901161350 68 336 0.0 0.0 0.00 0.00 0.00 45 1018.2
20260901160845 68 336 0.0 0.0 0.00 0.00 0.00 45 1018.2
20260901160342 68 336 0.0 0.0 0.00 0.00 0.00 45 1018.2
20260901155840 67 199 0.0 0.0 0.00 0.00 0.00 49 1018.2
20260901155335 67 199 0.0 0.0 0.00 0.00 0.00 49 1018.2
20260901154832 67 149 0.0 0.0 0.00 0.00 0.00 46 1018.5
20260901154330 68 235 0.0 0.0 0.00 0.00 0.00 44 1018.5
20260901153825 70 221 0.0 0.0 0.00 0.00 0.00 46 1018.5
20260901153320 70 221 0.0 0.0 0.00 0.00 0.00 46 1018.5
20260901152819 70 109 0.0 0.0 0.00 0.00 0.00 45 1018.5
20260901152318 70 109 0.0 0.0 0.00 0.00 0.00 45 1018.5
20260901151629 71 296 0.0 0.0 0.00 0.00 0.00 49 1018.5
20260901151128 71 296 0.0 0.0 0.00 0.00 0.00 49 1018.5
20260901150626 70 152 0.0 0.0 0.00 0.00 0.00 46 1018.5
20260901150120 69 218 0.0 0.0 0.00 0.00 0.00 48 1018.5
20260901145618 70 200 0.0 0.0 0.00 0.00 0.00 46 1018.5
20260901144937 69 4 0.0 0.0 0.00 0.00 0.00 48 1018.9
20260901144433 69 4 0.0 0.0 0.00 0.00 0.00 48 1018.9
20260901143928 69 217 0.0 0.0 0.00 0.00 0.00 49 1018.5
20260901143424 69 170 0.0 0.0 0.00 0.00 0.00 49 1018.9
20260901142920 69 170 0.0 0.0 0.00 0.00 0.00 49 1018.9
20260901141903 70 199 0.0 0.0 0.00 0.00 0.00 51 1018.9
20260901141358 70 199 0.0 0.0 0.00 0.00 0.00 51 1018.9
20260901140857 67 245 0.0 0.0 0.00 0.00 0.00 56 1018.9
20260901140355 67 245 0.0 0.0 0.00 0.00 0.00 56 1018.9
20260901135850 66 167 0.0 0.0 0.00 0.00 0.00 63 1017.8
20260901135346 67 244 0.0 0.0 0.00 0.00 0.00 61 1018.5
20260901134842 67 244 0.0 0.0 0.00 0.00 0.00 61 1018.5
20260901134337 65 190 0.0 0.0 0.00 0.00 0.00 64 1018.5
20260901133837 65 190 0.0 0.0 0.00 0.00 0.00 64 1018.5
20260901133336 64 202 0.0 0.0 0.00 0.00 0.00 67 1018.5
20260901132835 64 228 0.0 0.0 0.00 0.00 0.00 66 1018.5
20260901132329 64 228 0.0 0.0 0.00 0.00 0.00 66 1018.5
20260901131823 64 304 0.0 0.0 0.00 0.00 0.00 67 1018.2
20260901131323 63 48 0.0 0.0 0.00 0.00 0.00 67 1018.5
20260901130818 63 48 0.0 0.0 0.00 0.00 0.00 67 1018.5
20260901130312 64 128 0.0 0.0 0.00 0.00 0.00 69 1018.2
20260901125810 63 219 0.0 0.0 0.00 0.00 0.00 70 1018.2
20260901125308 62 171 0.0 0.0 0.00 0.00 0.00 71 1018.2
20260901124800 62 187 0.0 0.0 0.00 0.00 0.00 74 1018.2
20260901124254 62 187 0.0 0.0 0.00 0.00 0.00 74 1018.2
20260901123754 60 47 0.0 0.0 0.00 0.00 0.00 75 1017.8
20260901123249 60 47 0.0 0.0 0.00 0.00 0.00 75 1017.8
20260901122748 58 160 0.0 0.0 0.00 0.00 0.00 77 1018.2
20260901122243 59 191 0.0 0.0 0.00 0.00 0.00 78 1017.8
20260901121743 57 286 0.0 0.0 0.00 0.00 0.00 79 1017.8
20260901121238 56 193 0.0 0.0 0.00 0.00 0.00 83 1017.8
20260901120737 56 193 0.0 0.0 0.00 0.00 0.00 83 1017.8
20260901120232 54 7 0.0 0.0 0.00 0.00 0.00 86 1018.2
20260901115728 54 7 0.0 0.0 0.00 0.00 0.00 86 1018.2
20260901115223 53 296 0.0 0.0 0.00 0.00 0.00 88 1017.8
20260901114720 53 193 0.0 0.0 0.00 0.00 0.00 89 1017.8
20260901113643 52 281 0.0 0.0 0.00 0.00 0.00 91 1017.4
20260901113139 52 281 0.0 0.0 0.00 0.00 0.00 91 1017.4
20260901112633 52 197 0.0 0.0 0.00 0.00 0.00 92 1017.8
20260901112132 52 197 0.0 0.0 0.00 0.00 0.00 92 1017.8
20260901111626 51 211 0.0 0.0 0.00 0.00 0.00 92 1017.4
20260901111125 50 203 0.0 0.0 0.00 0.00 0.00 92 1017.4
20260901110620 50 203 0.0 0.0 0.00 0.00 0.00 92 1017.4
20260901110005 49 202 0.0 0.0 0.00 0.00 0.00 92 1017.1
20260901105501 49 202 0.0 0.0 0.00 0.00 0.00 92 1017.1
20260901104956 48 207 0.0 0.0 0.00 0.00 0.00 92 1017.1
20260901104451 48 207 0.0 0.0 0.00 0.00 0.00 92 1017.1
20260901103951 48 207 0.0 0.0 0.00 0.00 0.00 92 1017.1
20260901103446 47 198 0.0 0.0 0.00 0.00 0.00 92 1017.1
20260901102941 47 202 0.0 0.0 0.00 0.00 0.00 92 1017.1
20260901102437 47 202 0.0 0.0 0.00 0.00 0.00 92 1017.1
20260901101931 47 200 0.0 0.0 0.00 0.00 0.00 92 1017.1
20260901101426 47 204 0.0 0.0 0.00 0.00 0.00 92 1017.1
20260901100926 47 204 0.0 0.0 0.00 0.00 0.00 92 1017.1
20260901100421 47 202 0.0 0.0 0.00 0.00 0.00 91 1016.8
20260901095920 47 202 0.0 0.0 0.00 0.00 0.00 91 1016.8
20260901095126 48 206 0.0 0.0 0.00 0.00 0.00 91 1017.1
20260901094621 48 206 0.0 0.0 0.00 0.00 0.00 91 1017.1
20260901094115 48 190 0.0 0.0 0.00 0.00 0.00 91 1017.1
20260901093610 48 190 0.0 0.0 0.00 0.00 0.00 91 1017.1
20260901093104 48 197 0.0 0.0 0.00 0.00 0.00 91 1017.1
20260901092600 49 205 0.0 0.0 0.00 0.00 0.00 91 1016.8
20260901092056 49 205 0.0 0.0 0.00 0.00 0.00 91 1016.8
20260901091551 49 205 0.0 0.0 0.00 0.00 0.00 91 1016.8
20260901091051 49 232 0.0 0.0 0.00 0.00 0.00 91 1016.8
20260901090550 49 232 0.0 0.0 0.00 0.00 0.00 91 1016.8
20260901090047 49 233 0.0 0.0 0.00 0.00 0.00 91 1016.8
20260901085542 49 211 0.0 0.0 0.00 0.00 0.00 91 1016.8
20260901085039 49 211 0.0 0.0 0.00 0.00 0.00 91 1016.8
20260901084535 49 203 0.0 0.0 0.00 0.00 0.00 91 1016.8
20260901084030 49 208 0.0 0.0 0.00 0.00 0.00 91 1016.8
20260901083524 49 215 0.0 0.0 0.00 0.00 0.00 91 1016.8
20260901083022 49 208 0.0 0.0 0.00 0.00 0.00 91 1016.8
20260901082517 49 208 0.0 0.0 0.00 0.00 0.00 91 1016.8
20260901082013 49 199 0.0 0.0 0.00 0.00 0.00 91 1016.4
20260901081507 49 204 0.0 0.0 0.00 0.00 0.00 90 1016.8
20260901081002 50 206 0.0 0.0 0.00 0.00 0.00 90 1016.8
20260901080456 50 205 0.0 0.0 0.00 0.00 0.00 90 1016.8
20260901075956 50 204 0.0 0.0 0.00 0.00 0.00 90 1016.8
20260901075452 50 204 0.0 0.0 0.00 0.00 0.00 90 1016.8
20260901074950 50 207 0.0 0.0 0.00 0.00 0.00 90 1016.8
20260901074445 50 208 0.0 0.0 0.00 0.00 0.00 90 1016.8
20260901073940 50 209 0.0 0.0 0.00 0.00 0.00 89 1016.8
20260901073437 50 209 0.0 0.0 0.00 0.00 0.00 89 1016.8
20260901072937 50 209 0.0 0.0 0.00 0.00 0.00 89 1016.8
20260901072432 50 226 0.0 0.0 0.00 0.00 0.00 88 1016.8
20260901071927 50 226 0.0 0.0 0.00 0.00 0.00 88 1016.8
20260901071426 50 204 0.0 0.0 0.00 0.00 0.00 87 1016.8
20260901070925 50 204 0.0 0.0 0.00 0.00 0.00 87 1016.8
20260901070421 50 204 0.0 0.0 0.00 0.00 0.00 86 1016.4
20260901065920 50 204 0.0 0.0 0.00 0.00 0.00 84 1016.4
20260901065415 50 204 0.0 0.0 0.00 0.00 0.00 84 1016.4
20260901064910 50 207 0.0 0.0 0.00 0.00 0.00 84 1016.4
20260901064407 50 204 0.0 0.0 0.00 0.00 0.00 83 1016.8
20260901063903 50 210 0.0 0.0 0.00 0.00 0.00 82 1016.8
20260901063400 50 203 0.0 0.0 0.00 0.00 0.00 81 1016.4
20260901062850 50 206 0.0 0.0 0.00 0.00 0.00 80 1016.4
20260901062346 50 211 0.0 0.0 0.00 0.00 0.00 80 1016.4
20260901061841 50 217 0.0 0.0 0.00 0.00 0.00 79 1016.4
20260901061336 50 207 0.0 0.0 0.00 0.00 0.00 79 1016.4
20260901060831 51 209 0.0 0.0 0.00 0.00 0.00 79 1016.4
20260901060327 51 208 0.0 0.0 0.00 0.00 0.00 78 1016.4
20260901055827 51 204 0.0 0.0 0.00 0.00 0.00 78 1016.4
20260901055323 51 204 0.0 0.0 0.00 0.00 0.00 78 1016.4
20260901054631 51 205 0.0 0.0 0.00 0.00 0.00 77 1016.4
20260901054127 51 205 0.0 0.0 0.00 0.00 0.00 77 1016.4
20260901053623 51 205 0.0 0.0 0.00 0.00 0.00 77 1016.4
20260901053118 51 184 0.0 0.0 0.00 0.00 0.00 76 1016.4
20260901052618 51 201 0.0 0.0 0.00 0.00 0.00 76 1016.1
20260901052114 51 203 0.0 0.0 0.00 0.00 0.00 76 1016.4
20260901051613 50 204 0.0 0.0 0.00 0.00 0.00 76 1016.4
20260901051112 51 201 0.0 0.0 0.00 0.00 0.00 75 1016.4
20260901050608 51 201 0.0 0.0 0.00 0.00 0.00 75 1016.4
20260901045557 52 209 0.0 0.0 0.00 0.00 0.00 74 1016.4
20260901045052 52 209 0.0 0.0 0.00 0.00 0.00 74 1016.4
20260901044548 52 209 0.0 0.0 0.00 0.00 0.00 74 1016.4
20260901044044 52 205 0.0 0.0 0.00 0.00 0.00 73 1016.4
20260901043539 52 205 0.0 0.0 0.00 0.00 0.00 73 1016.4
20260901043035 53 206 0.0 0.0 0.00 0.00 0.00 72 1016.4
20260901042534 53 206 0.0 0.0 0.00 0.00 0.00 72 1016.4
20260901042029 53 213 0.0 0.0 0.00 0.00 0.00 72 1016.4
20260901041525 53 217 0.0 0.0 0.00 0.00 0.00 72 1016.4
20260901041019 53 201 0.0 0.0 0.00 0.00 0.00 72 1016.4
20260901040513 53 212 0.0 0.0 0.00 0.00 0.00 71 1016.4
20260901040008 54 206 0.0 0.0 0.00 0.00 0.00 71 1016.1
20260901035506 54 206 0.0 0.0 0.00 0.00 0.00 71 1016.1
20260901035004 54 208 0.0 0.0 0.00 0.00 0.00 70 1016.4
20260901034504 54 208 0.0 0.0 0.00 0.00 0.00 70 1016.4
20260901033959 54 205 0.0 0.0 0.00 0.00 0.00 71 1016.4
20260901033458 54 207 0.0 0.0 0.00 0.00 0.00 70 1016.4
20260901032957 54 207 0.0 0.0 0.00 0.00 0.00 70 1016.4
20260901032451 54 207 0.0 0.0 0.00 0.00 0.00 70 1016.4
20260901031946 55 219 0.0 0.0 0.00 0.00 0.00 70 1016.4
20260901031442 55 219 0.0 0.0 0.00 0.00 0.00 70 1016.4
20260901030942 55 220 0.0 0.0 0.00 0.00 0.00 69 1016.4
20260901030438 55 220 0.0 0.0 0.00 0.00 0.00 69 1016.4
20260901025936 55 210 0.0 0.0 0.00 0.00 0.00 69 1016.4
20260901025432 55 213 0.0 0.0 0.00 0.00 0.00 68 1016.4
20260901024931 55 213 0.0 0.0 0.00 0.00 0.00 68 1016.4
20260901024426 55 212 0.0 0.0 0.00 0.00 0.00 68 1016.4
20260901023924 56 229 0.0 0.0 0.00 0.00 0.00 68 1016.4
20260901023419 56 229 0.0 0.0 0.00 0.00 0.00 68 1016.4
20260901022914 56 222 0.0 0.0 0.00 0.00 0.00 67 1016.1
20260901022410 56 225 0.0 0.0 0.00 0.00 0.00 68 1016.4
20260901021905 56 213 0.0 0.0 0.00 0.00 0.00 68 1016.4
20260901021401 55 214 0.0 0.0 0.00 0.00 0.00 69 1016.4
20260901020855 55 214 0.0 0.0 0.00 0.00 0.00 69 1016.4
20260901020345 55 216 0.0 0.0 0.00 0.00 0.00 70 1016.4
20260901015844 55 208 0.0 0.0 0.00 0.00 0.00 71 1016.4
20260901015341 55 208 0.0 0.0 0.00 0.00 0.00 71 1016.4
20260901014840 55 198 0.0 0.0 0.00 0.00 0.00 69 1016.1
20260901014336 55 198 0.0 0.0 0.00 0.00 0.00 69 1016.1
20260901013831 55 205 0.0 0.0 0.00 0.00 0.00 69 1016.4
20260901013327 55 208 0.0 0.0 0.00 0.00 0.00 68 1016.1
20260901012823 55 208 0.0 0.0 0.00 0.00 0.00 68 1016.1
20260901012322 55 209 0.0 0.0 0.00 0.00 0.00 67 1016.1
20260901011755 56 226 0.0 0.0 0.00 0.00 0.00 67 1016.1
20260901011250 56 226 0.0 0.0 0.00 0.00 0.00 67 1016.1
20260901010744 55 231 0.0 0.0 0.00 0.00 0.00 67 1016.1
20260901010239 55 231 0.0 0.0 0.00 0.00 0.00 67 1016.1
20260901005737 55 217 0.0 0.0 0.00 0.00 0.00 67 1016.1
20260901005233 56 235 0.0 0.0 0.00 0.00 0.00 67 1016.1
20260901004732 56 235 0.0 0.0 0.00 0.00 0.00 67 1016.1
20260901004227 56 236 0.0 0.0 0.00 0.00 0.00 67 1016.1
20260901003722 56 232 0.0 0.0 0.00 0.00 0.00 67 1016.1
20260901003221 56 242 0.0 0.0 0.00 0.00 0.00 67 1016.1
20260901002720 56 218 0.0 0.0 0.00 0.00 0.00 67 1016.1
20260901002215 56 231 0.0 0.0 0.00 0.00 0.00 66 1015.7
20260901001711 56 225 0.0 0.0 0.00 0.00 0.00 66 1015.7
20260901001207 56 226 0.0 0.0 0.00 0.00 0.00 66 1015.7
20260901000702 56 226 0.0 0.0 0.00 0.00 0.00 66 1015.7
20260901000157 57 233 0.0 0.0 0.00 0.00 0.00 66 1015.7
20260831235656 57 233 0.0 0.0 0.00 0.00 0.00 66 1015.7
20260831235152 57 233 0.0 0.0 0.00 0.00 0.00 66 1015.7
20260831234651 57 220 0.0 0.0 0.00 0.00 0.00 65 1015.7
20260831234146 57 242 0.0 0.0 0.00 0.00 0.00 66 1015.7
20260831233642 57 217 0.0 0.0 0.00 0.00 0.00 64 1015.7
20260831233137 58 196 0.0 0.0 0.00 0.00 0.00 63 1015.7
20260831232632 59 219 0.0 0.0 0.00 0.00 0.00 61 1015.7
20260831232129 59 219 0.0 0.0 0.00 0.00 0.00 61 1015.7
20260831231624 60 220 0.0 0.0 0.00 0.00 0.00 60 1015.7
20260831231119 60 220 0.0 0.0 0.00 0.00 0.00 60 1015.7
20260831230103 60 214 0.0 0.0 0.00 0.00 0.00 59 1015.7
20260831225558 60 214 0.0 0.0 0.00 0.00 0.00 59 1015.7